Time,TemperatureF,DewpointF,PressureIn,WindDirection,WindDirectionDegrees,WindSpeedMPH,WindSpeedGustMPH,Humidity,HourlyPrecipIn,Conditions,Clouds,dailyrainin,SoftwareType,DateUTC
2013-10-13 00:03:00,47.6,0.0,30.17,WNW,293,0.0,0.0,0,0.00,,---,0.00,VWS V14.00,2013-10-13 05:03:00,
2013-10-13 00:08:00,47.3,0.0,30.17,WNW,293,0.0,0.0,0,0.00,,---,0.00,VWS V14.00,2013-10-13 05:08:00,
2013-10-13 00:13:00,47.1,0.0,30.18,WNW,293,0.0,0.0,0,0.00,,---,0.00,VWS V14.00,2013-10-13 05:13:00,
2013-10-13 00:19:00,46.7,0.0,30.18,WNW,293,0.0,0.0,0,0.00,,---,0.00,VWS V14.00,2013-10-13 05:19:00,
2013-10-13 00:24:00,46.1,0.0,30.18,WNW,293,0.0,0.0,0,0.00,,---,0.00,VWS V14.00,2013-10-13 05:24:00,
2013-10-13 00:29:00,46.1,0.0,30.18,WNW,293,0.0,0.0,0,0.00,,---,0.00,VWS V14.00,2013-10-13 05:29:00,
2013-10-13 00:34:00,46.0,0.0,30.18,WNW,293,0.0,0.0,0,0.00,,---,0.00,VWS V14.00,2013-10-13 05:34:00,
2013-10-13 00:40:00,45.8,0.0,30.19,WNW,293,0.0,0.0,0,0.00,,---,0.00,VWS V14.00,2013-10-13 05:40:00,
2013-10-13 00:45:00,45.7,0.0,30.19,WNW,293,0.0,0.0,0,0.00,,---,0.00,VWS V14.00,2013-10-13 05:45:00,
2013-10-13 00:50:00,45.5,0.0,30.19,WNW,293,0.0,0.0,0,0.00,,---,0.00,VWS V14.00,2013-10-13 05:50:00,
2013-10-13 00:55:00,45.8,0.0,30.20,WNW,293,0.0,0.0,0,0.00,,---,0.00,VWS V14.00,2013-10-13 05:55:00,
2013-10-13 01:00:00,45.8,0.0,30.20,WNW,293,0.0,0.0,0,0.00,,---,0.00,VWS V14.00,2013-10-13 06:00:00,
2013-10-13 01:05:00,45.8,0.0,30.20,WNW,293,0.0,0.0,0,0.00,,---,0.00,VWS V14.00,2013-10-13 06:05:00,
2013-10-13 01:10:00,45.8,0.0,30.20,WNW,293,0.0,0.0,0,0.00,,---,0.00,VWS V14.00,2013-10-13 06:10:00,
2013-10-13 01:15:00,46.0,0.0,30.20,WNW,293,0.0,0.0,0,0.00,,---,0.00,VWS V14.00,2013-10-13 06:15:00,
2013-10-13 01:20:00,45.8,0.0,30.20,WNW,293,0.0,0.0,0,0.00,,---,0.00,VWS V14.00,2013-10-13 06:20:00,
2013-10-13 01:25:00,45.7,0.0,30.20,WNW,293,0.0,0.0,0,0.00,,---,0.00,VWS V14.00,2013-10-13 06:25:00,
2013-10-13 01:30:00,45.4,0.0,30.21,WNW,293,0.0,0.0,0,0.00,,---,0.00,VWS V14.00,2013-10-13 06:30:00,
2013-10-13 01:35:00,45.2,0.0,30.21,WNW,293,0.0,0.0,0,0.00,,---,0.00,VWS V14.00,2013-10-13 06:35:00,
2013-10-13 01:40:00,45.2,0.0,30.21,WNW,293,0.0,0.0,0,0.00,,---,0.00,VWS V14.00,2013-10-13 06:40:00,
2013-10-13 01:45:00,45.2,0.0,30.21,WNW,293,0.0,0.0,0,0.00,,---,0.00,VWS V14.00,2013-10-13 06:45:00,
2013-10-13 01:50:00,44.8,0.0,30.21,WNW,293,0.0,0.0,0,0.00,,---,0.00,VWS V14.00,2013-10-13 06:50:00,
2013-10-13 01:55:00,44.3,0.0,30.21,WNW,293,0.0,0.0,0,0.00,,---,0.00,VWS V14.00,2013-10-13 06:55:00,
2013-10-13 02:01:00,44.2,0.0,30.22,WNW,293,0.0,0.0,0,0.00,,---,0.00,VWS V14.00,2013-10-13 07:01:00,
2013-10-13 02:06:00,44.2,0.0,30.21,WNW,293,0.0,0.0,0,0.00,,---,0.00,VWS V14.00,2013-10-13 07:06:00,
2013-10-13 02:11:00,44.2,0.0,30.22,WNW,293,0.0,0.0,0,0.00,,---,0.00,VWS V14.00,2013-10-13 07:11:00,
2013-10-13 02:16:00,44.3,0.0,30.22,WNW,293,0.0,0.0,0,0.00,,---,0.00,VWS V14.00,2013-10-13 07:16:00,
2013-10-13 02:21:00,44.5,0.0,30.22,WNW,293,0.0,0.0,0,0.00,,---,0.00,VWS V14.00,2013-10-13 07:21:00,
2013-10-13 02:26:00,44.5,0.0,30.22,WNW,293,0.0,0.0,0,0.00,,---,0.00,VWS V14.00,2013-10-13 07:26:00,
2013-10-13 02:31:00,44.5,0.0,30.22,WNW,293,0.0,0.0,0,0.00,,---,0.00,VWS V14.00,2013-10-13 07:31:00,
2013-10-13 02:36:00,44.3,0.0,30.23,WNW,293,0.0,0.0,0,0.00,,---,0.00,VWS V14.00,2013-10-13 07:36:00,
2013-10-13 02:41:00,44.1,0.0,30.23,WNW,293,0.0,0.0,0,0.00,,---,0.00,VWS V14.00,2013-10-13 07:41:00,
2013-10-13 02:46:00,43.8,0.0,30.23,WNW,293,0.0,0.0,0,0.00,,---,0.00,VWS V14.00,2013-10-13 07:46:00,
2013-10-13 02:51:00,43.6,0.0,30.23,WNW,293,0.0,0.0,0,0.00,,---,0.00,VWS V14.00,2013-10-13 07:51:00,
2013-10-13 02:56:00,43.3,0.0,30.23,WNW,293,0.0,0.0,0,0.00,,---,0.00,VWS V14.00,2013-10-13 07:56:00,
2013-10-13 03:02:00,43.2,0.0,30.23,WNW,293,0.0,0.0,0,0.00,,---,0.00,VWS V14.00,2013-10-13 08:02:00,
2013-10-13 03:07:00,43.2,0.0,30.24,WNW,293,0.0,0.0,0,0.00,,---,0.00,VWS V14.00,2013-10-13 08:07:00,
2013-10-13 03:12:00,43.6,0.0,30.23,WNW,293,0.0,0.0,0,0.00,,---,0.00,VWS V14.00,2013-10-13 08:12:00,
2013-10-13 09:00:00,46.1,0.0,30.37,WNW,292,0.0,1.0,0,0.00,,---,0.00,VWS V14.00,2013-10-13 14:00:00,
2013-10-13 09:59:00,52.5,0.0,30.38,NW,311,0.0,0.0,0,0.00,,---,0.00,VWS V14.00,2013-10-13 14:59:00,
2013-10-13 10:04:00,52.9,0.0,30.38,NW,311,0.0,0.0,0,0.00,,---,0.00,VWS V14.00,2013-10-13 15:04:00,
2013-10-13 10:09:00,53.3,0.0,30.39,NNE,17,0.0,0.0,0,0.00,,---,0.00,VWS V14.00,2013-10-13 15:09:00,
2013-10-13 10:14:00,53.8,0.0,30.39,NW,305,0.0,0.0,0,0.00,,---,0.00,VWS V14.00,2013-10-13 15:14:00,
2013-10-13 10:19:00,54.1,0.0,30.39,NW,306,0.0,0.0,0,0.00,,---,0.00,VWS V14.00,2013-10-13 15:19:00,
2013-10-13 10:24:00,54.2,0.0,30.39,NW,305,0.0,0.0,0,0.00,,---,0.00,VWS V14.00,2013-10-13 15:24:00,
2013-10-13 10:29:00,54.7,0.0,30.39,NW,305,0.0,0.0,0,0.00,,---,0.00,VWS V14.00,2013-10-13 15:29:00,
2013-10-13 10:34:00,54.8,0.0,30.39,NW,304,0.0,0.0,0,0.00,,---,0.00,VWS V14.00,2013-10-13 15:34:00,
2013-10-13 10:39:00,55.0,0.0,30.39,WNW,300,0.0,0.0,0,0.00,,---,0.00,VWS V14.00,2013-10-13 15:39:00,
2013-10-13 10:44:00,55.0,0.0,30.38,NW,319,0.0,0.0,0,0.00,,---,0.00,VWS V14.00,2013-10-13 15:44:00,
2013-10-13 10:49:00,55.1,0.0,30.39,NW,315,0.0,0.0,0,0.00,,---,0.00,VWS V14.00,2013-10-13 15:49:00,
2013-10-13 10:55:00,55.3,0.0,30.39,NW,308,5.0,10.0,0,0.00,,---,0.00,VWS V14.00,2013-10-13 15:55:00,
2013-10-13 11:00:00,55.3,0.0,30.39,NW,321,0.0,10.0,0,0.00,,---,0.00,VWS V14.00,2013-10-13 16:00:00,
2013-10-13 11:05:00,55.7,0.0,30.39,NW,306,0.0,0.0,0,0.00,,---,0.00,VWS V14.00,2013-10-13 16:05:00,
2013-10-13 11:10:00,55.7,0.0,30.39,WNW,293,0.0,11.0,0,0.00,,---,0.00,VWS V14.00,2013-10-13 16:10:00,
2013-10-13 11:15:00,56.2,0.0,30.38,NW,310,0.0,11.0,0,0.00,,---,0.00,VWS V14.00,2013-10-13 16:15:00,
2013-10-13 11:20:00,56.7,0.0,30.39,NW,321,9.0,16.0,0,0.00,,---,0.00,VWS V14.00,2013-10-13 16:20:00,
2013-10-13 11:25:00,56.9,0.0,30.39,NW,323,0.0,16.0,0,0.00,,---,0.00,VWS V14.00,2013-10-13 16:25:00,
2013-10-13 11:30:00,57.0,0.0,30.39,NW,304,8.0,19.0,0,0.00,,---,0.00,VWS V14.00,2013-10-13 16:30:00,
2013-10-13 11:35:00,57.3,0.0,30.39,NW,309,13.0,18.0,0,0.00,,---,0.00,VWS V14.00,2013-10-13 16:35:00,
2013-10-13 11:40:00,57.5,0.0,30.39,NW,314,14.0,18.0,0,0.00,,---,0.00,VWS V14.00,2013-10-13 16:40:00,
2013-10-13 11:45:00,57.8,0.0,30.39,WNW,294,14.0,18.0,0,0.00,,---,0.00,VWS V14.00,2013-10-13 16:45:00,
2013-10-13 11:50:00,57.6,0.0,30.38,WNW,288,7.0,18.0,0,0.00,,---,0.00,VWS V14.00,2013-10-13 16:50:00,
2013-10-13 11:55:00,57.8,0.0,30.38,NW,317,7.0,18.0,0,0.00,,---,0.00,VWS V14.00,2013-10-13 16:55:00,
2013-10-13 12:00:00,58.1,0.0,30.38,WNW,293,6.0,18.0,0,0.00,,---,0.00,VWS V14.00,2013-10-13 17:00:00,
2013-10-13 12:05:00,58.3,0.0,30.38,WNW,301,7.0,18.0,0,0.00,,---,0.00,VWS V14.00,2013-10-13 17:05:00,
2013-10-13 12:10:00,58.3,0.0,30.38,NW,320,7.0,18.0,0,0.00,,---,0.00,VWS V14.00,2013-10-13 17:10:00,
2013-10-13 12:16:00,58.3,0.0,30.38,NW,311,8.0,18.0,0,0.00,,---,0.00,VWS V14.00,2013-10-13 17:16:00,
2013-10-13 12:21:00,58.4,0.0,30.38,NW,317,7.0,18.0,0,0.00,,---,0.00,VWS V14.00,2013-10-13 17:21:00,
2013-10-13 12:26:00,59.0,0.0,30.38,WNW,299,14.0,19.0,0,0.00,,---,0.00,VWS V14.00,2013-10-13 17:26:00,
2013-10-13 12:31:00,58.9,0.0,30.38,NW,312,6.0,19.0,0,0.00,,---,0.00,VWS V14.00,2013-10-13 17:31:00,
2013-10-13 12:36:00,59.0,0.0,30.38,WNW,288,4.0,14.0,0,0.00,,---,0.00,VWS V14.00,2013-10-13 17:36:00,
2013-10-13 12:41:00,58.9,0.0,30.37,WNW,303,10.0,14.0,0,0.00,,---,0.00,VWS V14.00,2013-10-13 17:41:00,
2013-10-13 12:46:00,59.5,0.0,30.37,NW,323,11.0,16.0,0,0.00,,---,0.00,VWS V14.00,2013-10-13 17:46:00,
2013-10-13 12:51:00,59.3,0.0,30.37,NNW,340,3.0,17.0,0,0.00,,---,0.00,VWS V14.00,2013-10-13 17:51:00,
2013-10-13 12:56:00,59.3,0.0,30.37,NW,304,13.0,17.0,0,0.00,,---,0.00,VWS V14.00,2013-10-13 17:56:00,
2013-10-13 13:01:00,59.5,0.0,30.37,NW,308,12.0,17.0,0,0.00,,---,0.00,VWS V14.00,2013-10-13 18:01:00,
2013-10-13 13:06:00,59.5,0.0,30.37,WNW,303,15.0,16.0,0,0.00,,---,0.00,VWS V14.00,2013-10-13 18:06:00,
2013-10-13 13:11:00,59.5,0.0,30.37,WNW,298,8.0,16.0,0,0.00,,---,0.00,VWS V14.00,2013-10-13 18:11:00,
2013-10-13 13:16:00,59.6,0.0,30.37,NW,306,11.0,16.0,0,0.00,,---,0.00,VWS V14.00,2013-10-13 18:16:00,
2013-10-13 13:21:00,59.8,0.0,30.37,West,279,10.0,20.0,0,0.00,,---,0.00,VWS V14.00,2013-10-13 18:21:00,
2013-10-13 13:26:00,59.5,0.0,30.36,NW,313,10.0,20.0,0,0.00,,---,0.00,VWS V14.00,2013-10-13 18:26:00,
2013-10-13 13:32:00,59.9,0.0,30.36,NNW,344,9.0,12.0,0,0.00,,---,0.00,VWS V14.00,2013-10-13 18:32:00,
2013-10-13 13:37:00,60.1,0.0,30.36,NW,314,11.0,14.0,0,0.00,,---,0.00,VWS V14.00,2013-10-13 18:37:00,
2013-10-13 13:42:00,60.1,0.0,30.36,WNW,296,9.0,17.0,0,0.00,,---,0.00,VWS V14.00,2013-10-13 18:42:00,
2013-10-13 13:47:00,60.1,0.0,30.36,WNW,296,6.0,17.0,0,0.00,,---,0.00,VWS V14.00,2013-10-13 18:47:00,
2013-10-13 13:52:00,60.4,0.0,30.36,NW,310,10.0,17.0,0,0.00,,---,0.00,VWS V14.00,2013-10-13 18:52:00,
2013-10-13 13:57:00,60.9,0.0,30.36,NW,325,10.0,17.0,0,0.00,,---,0.00,VWS V14.00,2013-10-13 18:57:00,
2013-10-13 14:02:00,60.5,0.0,30.35,North,355,4.0,10.0,0,0.00,,---,0.00,VWS V14.00,2013-10-13 19:02:00,
2013-10-13 14:07:00,60.7,0.0,30.35,WNW,292,14.0,16.0,0,0.00,,---,0.00,VWS V14.00,2013-10-13 19:07:00,
2013-10-13 14:12:00,60.7,0.0,30.35,WNW,286,8.0,16.0,0,0.00,,---,0.00,VWS V14.00,2013-10-13 19:12:00,
2013-10-13 14:17:00,61.0,0.0,30.35,NW,305,5.0,16.0,0,0.00,,---,0.00,VWS V14.00,2013-10-13 19:17:00,
2013-10-13 14:23:00,61.0,0.0,30.35,NNW,348,6.0,16.0,0,0.00,,---,0.00,VWS V14.00,2013-10-13 19:23:00,
2013-10-13 14:28:00,61.3,0.0,30.35,NW,307,10.0,16.0,0,0.00,,---,0.00,VWS V14.00,2013-10-13 19:28:00,
2013-10-13 14:33:00,61.2,0.0,30.35,WNW,294,4.0,9.0,0,0.00,,---,0.00,VWS V14.00,2013-10-13 19:33:00,
2013-10-13 14:38:00,61.2,0.0,30.35,NW,317,11.0,15.0,0,0.00,,---,0.00,VWS V14.00,2013-10-13 19:38:00,
2013-10-13 14:43:00,61.3,0.0,30.35,NW,323,16.0,18.0,0,0.00,,---,0.00,VWS V14.00,2013-10-13 19:43:00,
2013-10-13 14:48:00,61.5,0.0,30.35,NW,306,16.0,19.0,0,0.00,,---,0.00,VWS V14.00,2013-10-13 19:48:00,
2013-10-13 14:53:00,61.3,0.0,30.35,WNW,295,3.0,19.0,0,0.00,,---,0.00,VWS V14.00,2013-10-13 19:53:00,
2013-10-13 14:58:00,61.3,0.0,30.35,NNW,331,0.0,19.0,0,0.00,,---,0.00,VWS V14.00,2013-10-13 19:58:00,
2013-10-13 15:03:00,61.5,0.0,30.34,WNW,301,7.0,11.0,0,0.00,,---,0.00,VWS V14.00,2013-10-13 20:03:00,
2013-10-13 15:09:00,62.0,0.0,30.34,NW,325,12.0,16.0,0,0.00,,---,0.00,VWS V14.00,2013-10-13 20:09:00,
2013-10-13 15:14:00,61.8,0.0,30.35,WNW,295,7.0,16.0,0,0.00,,---,0.00,VWS V14.00,2013-10-13 20:14:00,
2013-10-13 15:19:00,61.6,0.0,30.35,NNW,332,7.0,16.0,0,0.00,,---,0.00,VWS V14.00,2013-10-13 20:19:00,
2013-10-13 15:24:00,61.6,0.0,30.34,NW,315,9.0,16.0,0,0.00,,---,0.00,VWS V14.00,2013-10-13 20:24:00,
2013-10-13 15:29:00,61.6,0.0,30.34,NW,319,8.0,16.0,0,0.00,,---,0.00,VWS V14.00,2013-10-13 20:29:00,
2013-10-13 15:34:00,61.8,0.0,30.34,North,355,11.0,11.0,0,0.00,,---,0.00,VWS V14.00,2013-10-13 20:34:00,
2013-10-13 15:39:00,62.0,0.0,30.34,NNW,340,12.0,12.0,0,0.00,,---,0.00,VWS V14.00,2013-10-13 20:39:00,
2013-10-13 15:44:00,62.0,0.0,30.34,NW,318,9.0,14.0,0,0.00,,---,0.00,VWS V14.00,2013-10-13 20:44:00,
2013-10-13 15:49:00,62.0,0.0,30.34,NW,321,4.0,14.0,0,0.00,,---,0.00,VWS V14.00,2013-10-13 20:49:00,
2013-10-13 15:54:00,62.0,0.0,30.34,WNW,293,10.0,14.0,0,0.00,,---,0.00,VWS V14.00,2013-10-13 20:54:00,
2013-10-13 15:59:00,62.0,0.0,30.34,NW,306,3.0,14.0,0,0.00,,---,0.00,VWS V14.00,2013-10-13 20:59:00,
2013-10-13 16:04:00,62.0,0.0,30.34,NW,309,9.0,13.0,0,0.00,,---,0.00,VWS V14.00,2013-10-13 21:04:00,
2013-10-13 16:09:00,62.1,0.0,30.34,NNW,346,3.0,13.0,0,0.00,,---,0.00,VWS V14.00,2013-10-13 21:09:00,
2013-10-13 16:14:00,62.1,0.0,30.35,NNW,338,4.0,13.0,0,0.00,,---,0.00,VWS V14.00,2013-10-13 21:14:00,
2013-10-13 16:19:00,62.3,0.0,30.34,NNW,338,4.0,13.0,0,0.00,,---,0.00,VWS V14.00,2013-10-13 21:19:00,
2013-10-13 16:25:00,62.4,0.0,30.34,NNW,329,5.0,13.0,0,0.00,,---,0.00,VWS V14.00,2013-10-13 21:25:00,
2013-10-13 16:30:00,62.3,0.0,30.34,NW,315,5.0,13.0,0,0.00,,---,0.00,VWS V14.00,2013-10-13 21:30:00,
2013-10-13 16:35:00,62.1,0.0,30.34,NW,321,10.0,12.0,0,0.00,,---,0.00,VWS V14.00,2013-10-13 21:35:00,
2013-10-13 16:40:00,62.1,0.0,30.34,NNE,26,0.0,12.0,0,0.00,,---,0.00,VWS V14.00,2013-10-13 21:40:00,
2013-10-13 16:45:00,62.1,0.0,30.34,NW,324,0.0,12.0,0,0.00,,---,0.00,VWS V14.00,2013-10-13 21:45:00,
2013-10-13 16:50:00,62.3,0.0,30.34,North,360,0.0,12.0,0,0.00,,---,0.00,VWS V14.00,2013-10-13 21:50:00,
2013-10-13 16:55:00,62.1,0.0,30.34,NNW,340,0.0,12.0,0,0.00,,---,0.00,VWS V14.00,2013-10-13 21:55:00,
2013-10-13 17:00:00,62.0,0.0,30.34,NNW,338,0.0,12.0,0,0.00,,---,0.00,VWS V14.00,2013-10-13 22:00:00,
2013-10-13 17:05:00,61.6,0.0,30.34,NNW,338,0.0,0.0,0,0.00,,---,0.00,VWS V14.00,2013-10-13 22:05:00,
2013-10-13 17:10:00,61.5,0.0,30.34,NW,326,0.0,0.0,0,0.00,,---,0.00,VWS V14.00,2013-10-13 22:10:00,
2013-10-13 17:15:00,61.3,0.0,30.34,NW,319,0.0,0.0,0,0.00,,---,0.00,VWS V14.00,2013-10-13 22:15:00,
2013-10-13 17:20:00,61.3,0.0,30.34,NNW,329,0.0,0.0,0,0.00,,---,0.00,VWS V14.00,2013-10-13 22:20:00,
2013-10-13 17:25:00,61.2,0.0,30.34,NNW,331,0.0,0.0,0,0.00,,---,0.00,VWS V14.00,2013-10-13 22:25:00,
2013-10-13 17:30:00,60.9,0.0,30.34,NNW,331,0.0,0.0,0,0.00,,---,0.00,VWS V14.00,2013-10-13 22:30:00,
2013-10-13 17:35:00,60.7,0.0,30.35,NNW,329,0.0,0.0,0,0.00,,---,0.00,VWS V14.00,2013-10-13 22:35:00,
2013-10-13 17:40:00,60.4,0.0,30.35,NNW,329,0.0,0.0,0,0.00,,---,0.00,VWS V14.00,2013-10-13 22:40:00,
2013-10-13 17:45:00,60.1,0.0,30.35,NNW,329,0.0,0.0,0,0.00,,---,0.00,VWS V14.00,2013-10-13 22:45:00,
2013-10-13 17:51:00,59.9,0.0,30.35,NNW,329,0.0,0.0,0,0.00,,---,0.00,VWS V14.00,2013-10-13 22:51:00,
2013-10-13 17:56:00,59.6,0.0,30.35,NNW,329,0.0,0.0,0,0.00,,---,0.00,VWS V14.00,2013-10-13 22:56:00,
2013-10-13 18:01:00,59.3,0.0,30.35,NNW,329,0.0,0.0,0,0.00,,---,0.00,VWS V14.00,2013-10-13 23:01:00,
2013-10-13 18:06:00,58.9,0.0,30.35,NNW,329,0.0,0.0,0,0.00,,---,0.00,VWS V14.00,2013-10-13 23:06:00,
2013-10-13 18:11:00,58.4,0.0,30.35,NNW,329,0.0,0.0,0,0.00,,---,0.00,VWS V14.00,2013-10-13 23:11:00,
2013-10-13 18:16:00,57.8,0.0,30.35,NNW,329,0.0,0.0,0,0.00,,---,0.00,VWS V14.00,2013-10-13 23:16:00,
2013-10-13 18:21:00,57.3,0.0,30.36,NNW,329,0.0,0.0,0,0.00,,---,0.00,VWS V14.00,2013-10-13 23:21:00,
2013-10-13 18:26:00,57.0,0.0,30.36,NNW,329,0.0,0.0,0,0.00,,---,0.00,VWS V14.00,2013-10-13 23:26:00,
2013-10-13 18:31:00,56.6,0.0,30.36,NNW,329,0.0,0.0,0,0.00,,---,0.00,VWS V14.00,2013-10-13 23:31:00,
2013-10-13 18:36:00,56.2,0.0,30.36,NNW,329,0.0,0.0,0,0.00,,---,0.00,VWS V14.00,2013-10-13 23:36:00,
2013-10-13 18:41:00,55.6,0.0,30.36,NNW,329,0.0,0.0,0,0.00,,---,0.00,VWS V14.00,2013-10-13 23:41:00,
2013-10-13 18:46:00,55.0,0.0,30.36,NNW,329,0.0,0.0,0,0.00,,---,0.00,VWS V14.00,2013-10-13 23:46:00,
2013-10-13 18:51:00,54.1,0.0,30.36,NNW,329,0.0,0.0,0,0.00,,---,0.00,VWS V14.00,2013-10-13 23:51:00,
2013-10-13 18:56:00,53.1,0.0,30.36,NNW,329,0.0,0.0,0,0.00,,---,0.00,VWS V14.00,2013-10-13 23:56:00,
2013-10-13 19:02:00,52.3,0.0,30.36,NNW,329,0.0,0.0,0,0.00,,---,0.00,VWS V14.00,2013-10-14 00:02:00,
2013-10-13 19:07:00,51.9,0.0,30.36,NNW,329,0.0,0.0,0,0.00,,---,0.00,VWS V14.00,2013-10-14 00:07:00,
2013-10-13 19:12:00,51.6,0.0,30.36,NNW,329,0.0,0.0,0,0.00,,---,0.00,VWS V14.00,2013-10-14 00:12:00,
2013-10-13 19:17:00,51.3,0.0,30.37,NNW,329,0.0,0.0,0,0.00,,---,0.00,VWS V14.00,2013-10-14 00:17:00,
2013-10-13 19:22:00,51.0,0.0,30.37,NNW,329,0.0,0.0,0,0.00,,---,0.00,VWS V14.00,2013-10-14 00:22:00,
2013-10-13 19:27:00,50.5,0.0,30.37,NNW,329,0.0,0.0,0,0.00,,---,0.00,VWS V14.00,2013-10-14 00:27:00,
2013-10-13 19:32:00,50.1,0.0,30.37,NNW,329,0.0,0.0,0,0.00,,---,0.00,VWS V14.00,2013-10-14 00:32:00,
2013-10-13 19:37:00,49.8,0.0,30.37,NNW,329,0.0,0.0,0,0.00,,---,0.00,VWS V14.00,2013-10-14 00:37:00,
2013-10-13 19:42:00,49.6,0.0,30.37,NNW,329,0.0,0.0,0,0.00,,---,0.00,VWS V14.00,2013-10-14 00:42:00,
2013-10-13 19:47:00,49.4,0.0,30.37,NNW,329,0.0,0.0,0,0.00,,---,0.00,VWS V14.00,2013-10-14 00:47:00,
2013-10-13 19:52:00,49.4,0.0,30.37,NNW,329,0.0,0.0,0,0.00,,---,0.00,VWS V14.00,2013-10-14 00:52:00,
2013-10-13 19:57:00,49.1,0.0,30.37,NNW,329,0.0,0.0,0,0.00,,---,0.00,VWS V14.00,2013-10-14 00:57:00,
2013-10-13 20:02:00,48.6,0.0,30.37,NNW,329,0.0,0.0,0,0.00,,---,0.00,VWS V14.00,2013-10-14 01:02:00,
2013-10-13 20:07:00,48.3,0.0,30.37,NNW,329,0.0,0.0,0,0.00,,---,0.00,VWS V14.00,2013-10-14 01:07:00,
2013-10-13 20:12:00,47.9,0.0,30.37,NNW,329,0.0,0.0,0,0.00,,---,0.00,VWS V14.00,2013-10-14 01:12:00,
2013-10-13 20:18:00,47.1,0.0,30.37,NNW,329,0.0,0.0,0,0.00,,---,0.00,VWS V14.00,2013-10-14 01:18:00,
2013-10-13 20:23:00,46.8,0.0,30.37,NNW,329,0.0,0.0,0,0.00,,---,0.00,VWS V14.00,2013-10-14 01:23:00,
2013-10-13 20:28:00,46.2,0.0,30.37,NNW,329,0.0,0.0,0,0.00,,---,0.00,VWS V14.00,2013-10-14 01:28:00,
2013-10-13 20:33:00,46.0,0.0,30.37,NNW,329,0.0,0.0,0,0.00,,---,0.00,VWS V14.00,2013-10-14 01:33:00,
2013-10-13 20:38:00,45.7,0.0,30.38,NNW,329,0.0,0.0,0,0.00,,---,0.00,VWS V14.00,2013-10-14 01:38:00,
2013-10-13 20:43:00,45.5,0.0,30.37,NNW,329,0.0,0.0,0,0.00,,---,0.00,VWS V14.00,2013-10-14 01:43:00,
2013-10-13 20:48:00,45.7,0.0,30.37,NNW,329,0.0,0.0,0,0.00,,---,0.00,VWS V14.00,2013-10-14 01:48:00,
2013-10-13 20:53:00,45.5,0.0,30.38,NNW,329,0.0,0.0,0,0.00,,---,0.00,VWS V14.00,2013-10-14 01:53:00,
2013-10-13 20:58:00,45.7,0.0,30.38,NNW,329,0.0,0.0,0,0.00,,---,0.00,VWS V14.00,2013-10-14 01:58:00,
2013-10-13 21:03:00,45.4,0.0,30.38,NNW,329,0.0,0.0,0,0.00,,---,0.00,VWS V14.00,2013-10-14 02:03:00,
2013-10-13 21:08:00,45.2,0.0,30.38,NNW,329,0.0,0.0,0,0.00,,---,0.00,VWS V14.00,2013-10-14 02:08:00,
2013-10-13 21:13:00,44.9,0.0,30.38,NNW,329,0.0,0.0,0,0.00,,---,0.00,VWS V14.00,2013-10-14 02:13:00,
2013-10-13 21:18:00,44.6,0.0,30.38,NNW,329,0.0,0.0,0,0.00,,---,0.00,VWS V14.00,2013-10-14 02:18:00,
2013-10-13 21:23:00,44.3,0.0,30.38,NNW,329,0.0,0.0,0,0.00,,---,0.00,VWS V14.00,2013-10-14 02:23:00,
2013-10-13 21:28:00,44.2,0.0,30.38,NNW,329,0.0,0.0,0,0.00,,---,0.00,VWS V14.00,2013-10-14 02:28:00,
2013-10-13 21:33:00,44.2,0.0,30.38,NNW,329,0.0,0.0,0,0.00,,---,0.00,VWS V14.00,2013-10-14 02:33:00,
2013-10-13 21:39:00,44.1,0.0,30.39,NNW,329,0.0,0.0,0,0.00,,---,0.00,VWS V14.00,2013-10-14 02:39:00,
2013-10-13 21:44:00,43.9,0.0,30.38,NNW,329,0.0,0.0,0,0.00,,---,0.00,VWS V14.00,2013-10-14 02:44:00,
2013-10-13 21:49:00,43.6,0.0,30.38,NNW,329,0.0,0.0,0,0.00,,---,0.00,VWS V14.00,2013-10-14 02:49:00,
2013-10-13 21:54:00,43.6,0.0,30.38,NNW,329,0.0,0.0,0,0.00,,---,0.00,VWS V14.00,2013-10-14 02:54:00,
2013-10-13 21:59:00,43.5,0.0,30.38,NNW,329,0.0,0.0,0,0.00,,---,0.00,VWS V14.00,2013-10-14 02:59:00,
2013-10-13 22:04:00,43.3,0.0,30.39,NNW,329,0.0,0.0,0,0.00,,---,0.00,VWS V14.00,2013-10-14 03:04:00,
2013-10-13 22:10:00,42.3,0.0,30.39,NNW,329,0.0,0.0,0,0.00,,---,0.00,VWS V14.00,2013-10-14 03:10:00,
2013-10-13 22:15:00,41.6,0.0,30.39,NNW,329,0.0,0.0,0,0.00,,---,0.00,VWS V14.00,2013-10-14 03:15:00,
2013-10-13 22:20:00,41.3,0.0,30.39,NNW,329,0.0,0.0,0,0.00,,---,0.00,VWS V14.00,2013-10-14 03:20:00,
2013-10-13 22:25:00,41.3,0.0,30.39,NNW,329,0.0,0.0,0,0.00,,---,0.00,VWS V14.00,2013-10-14 03:25:00,
2013-10-13 22:31:00,41.3,0.0,30.39,NNW,329,0.0,0.0,0,0.00,,---,0.00,VWS V14.00,2013-10-14 03:31:00,
2013-10-13 22:36:00,41.6,0.0,30.39,NNW,329,0.0,0.0,0,0.00,,---,0.00,VWS V14.00,2013-10-14 03:36:00,
2013-10-13 22:41:00,42.2,0.0,30.39,NNW,329,0.0,0.0,0,0.00,,---,0.00,VWS V14.00,2013-10-14 03:41:00,
2013-10-13 22:46:00,41.9,0.0,30.39,NNW,329,0.0,0.0,0,0.00,,---,0.00,VWS V14.00,2013-10-14 03:46:00,
2013-10-13 22:51:00,41.3,0.0,30.39,NNW,329,0.0,0.0,0,0.00,,---,0.00,VWS V14.00,2013-10-14 03:51:00,
2013-10-13 22:56:00,41.1,0.0,30.40,NNW,329,0.0,0.0,0,0.00,,---,0.00,VWS V14.00,2013-10-14 03:56:00,
2013-10-13 23:01:00,41.1,0.0,30.40,NNW,329,0.0,0.0,0,0.00,,---,0.00,VWS V14.00,2013-10-14 04:01:00,
2013-10-13 23:02:00,41.1,0.0,30.40,NNW,329,0.0,0.0,0,0.00,,---,0.00,VWS V14.00,2013-10-14 04:02:00,
2013-10-13 23:04:00,41.1,0.0,30.40,NNW,329,0.0,0.0,0,0.00,,---,0.00,VWS V14.00,2013-10-14 04:04:00,
2013-10-13 23:09:00,40.8,0.0,30.40,NNW,329,0.0,0.0,0,0.00,,---,0.00,VWS V14.00,2013-10-14 04:09:00,
2013-10-13 23:14:00,40.3,0.0,30.40,NNW,329,0.0,0.0,0,0.00,,---,0.00,VWS V14.00,2013-10-14 04:14:00,
2013-10-13 23:19:00,39.9,0.0,30.40,NNW,329,0.0,0.0,0,0.00,,---,0.00,VWS V14.00,2013-10-14 04:19:00,
2013-10-13 23:24:00,39.8,0.0,30.40,NNW,329,0.0,0.0,0,0.00,,---,0.00,VWS V14.00,2013-10-14 04:24:00,
2013-10-13 23:29:00,39.6,0.0,30.39,NNW,329,0.0,0.0,0,0.00,,---,0.00,VWS V14.00,2013-10-14 04:29:00,
2013-10-13 23:35:00,39.9,0.0,30.39,NNW,329,0.0,0.0,0,0.00,,---,0.00,VWS V14.00,2013-10-14 04:35:00,
2013-10-13 23:40:00,40.1,0.0,30.39,NNW,329,0.0,0.0,0,0.00,,---,0.00,VWS V14.00,2013-10-14 04:40:00,
2013-10-13 23:45:00,40.1,0.0,30.39,NNW,329,0.0,0.0,0,0.00,,---,0.00,VWS V14.00,2013-10-14 04:45:00,
2013-10-13 23:50:00,40.1,0.0,30.39,NNW,329,0.0,0.0,0,0.00,,---,0.00,VWS V14.00,2013-10-14 04:50:00,
2013-10-13 23:55:00,40.1,0.0,30.39,NNW,329,0.0,0.0,0,0.00,,---,0.00,VWS V14.00,2013-10-14 04:55:00,